SCP
-0 -0 -0 -0 -0 -0 -0 -0 -0 -0 -0 -0 -0 -0 -0 -0 -0 0 0 0 0 -0 0 -0 -1 -0 -0 -0 0 0 0 0 0 0 0 0 0 0 -0 0 -0 -0 -0 -0 -0
-0 -0 -0 -0 -0 -0 -0 -0 -0 -0 -0 -0 -0 -0 -0 -0 -0 -0 0 -0 -0 -0 -0 -0 -0 0 -0 0 0 0 0 -0 -0 -0 -0 0 -0 -0 0 -0 -0 -0 -0 -0 -0
-0 -0 -0 -0 -0 -0 -0 -0 -0 -0 -0 -0 -0 -0 -0 -0 -0 0 0 -0 -0 -0 -0 -0 -0 -0 -0 0 0 0 0 -0 0 0 -0 0 -0 -0 -0 -0 -0 -0 -0 -0 -0
-0 -0 -0 -0 -0 -0 -0 -0 -0 -0 -0 -0 -0 -0 -0 -0 0 0 -0 -0 -0 -0 -0 -0 -0 -0 0 0 0 -0 -0 0 0 0 0 0 0 0 0 -0 -0 -0 -0 -0 -0
-0 -0 -0 -0 -0 -0 -0 -0 -0 -0 -0 -0 -0 -0 -0 -0 -0 -0 0 -0 0 -0 -0 -0 -0 -0 -0 0 -0 0 0 -0 0 0 -0 -1 -1 -0 0 0 -0 -0 -0 -0 -0
0 -0 -0 -0 -0 -0 -0 -0 -0 -0 -0 -0 -0 -0 -0 -0 -0 -0 0 0 0 -0 -0 -0 -0 -0 -0 -0 -0 0 -0 -0 0 0 -0 -0 0 -0 0 0 -0 -0 -0 -0 -0
0 0 -0 -0 -0 -0 -0 -0 -0 -0 -0 -0 -0 -0 -0 -0 -0 0 0 0 -0 -0 -0 -0 0 -0 -0 -0 -0 -0 -0 -0 0 -0 0 0 0 -0 -0 0 -0 -0 -0 -0 -0
-0 -0 -0 -0 -0 -0 -0 -0 -0 -0 -0 -0 -0 -0 -0 0 -0 0 0 0 -0 -0 -0 -0 -0 -0 0 -0 -0 0 0 0 0 0 0 0 0 0 0 0 -0 -0 -0 -0 -0
-0 -0 -0 -0 -0 -0 -0 -0 -0 -0 -0 0 0 -0 -0 0 0 0 0 0 0 0 0 0 -0 -0 -0 -0 0 -0 -0 0 0 0 0 -0 0 0 -0 0 0 -0 -0 -0 -0
0 0 -0 -0 -0 -0 -0 -0 0 -0 0 -0 -0 -0 -0 0 -0 -0 0 -0 0 0 -0 0 0 -0 -0 -0 -0 -0 0 -0 0 0 0 -0 -0 -0 0 0 0 0 -0 -0 -0
0 0 0 -0 -0 -0 -0 0 0 0 -0 -0 -0 -0 0 0 0 -0 -0 0 0 0 -0 -0 -0 -0 -0 -0 -0 -0 -0 -0 -0 0 0 0 -0 0 0 0 0 -0 0 -0 -0
0 0 0 -0 -0 -0 0 0 0 -0 0 -0 -0 -0 0 0 -0 0 -0 -0 -0 -0 -0 0 -0 -0 0 0 0 0 -0 -0 -0 0 0 0 0 -0 -0 0 0 0 -1 -0 -0
0 0 0 -0 -0 0 0 -0 0 -0 -0 -0 -0 -0 -0 -0 -0 -0 -0 -0 -0 -0 0 -0 -0 -0 0 0 -0 0 -0 -0 0 -0 -0 -0 -0 -0 -0 0 0 0 -0 -0 -0
0 0 0 -0 0 0 -0 0 0 0 -0 -0 -0 -0 -0 0 -0 -0 -0 -0 0 0 -0 0 0 0 0 0 -0 0 -0 0 0 -0 -0 -0 0 0 0 0 -0 0 0 0 0
0 0 0 0 0 0 0 0 -0 0 0 -0 -0 0 -0 -0 0 0 -0 -0 0 -0 0 0 -0 -0 -0 0 0 0 0 0 0 -0 0 -0 -0 -0 -0 -0 0 0 -0 0 -0
0 0 0 0 0 -0 0 0 0 -0 0 0 0 0 -0 -0 -0 0 0 -0 -0 -0 0 0 -0 -0 0 0 0 0 0 0 0 0 0 -0 0 0 0 0 0 -0 0 0 0
0 0 0 0 0 0 0 0 0 0 0 0 0 -0 -0 -0 -0 0 0 0 0 0 -0 0 -0 -0 0 0 -0 0 -0 0 -0 0 0 -0 -0 0 0 0 0 0 0 0 0
0 0 0 0 0 0 0 0 0 -0 0 0 0 0 0 0 0 0 0 0 0 0 0 0 -0 0 0 0 -0 -0 0 0 0 0 -0 -0 0 0 0 0 0 0 -0 0 0
0 0 0 0 -0 0 0 0 0 0 0 0 0 0 0 0 -0 0 0 0 0 0 0 0 0 0 0 0 0 -0 -0 0 0 0 0 -0 -0 0 0 0 0 0 0 0 0
0 0 0 0 0 0 0 -0 0 0 0 0 0 0 -0 0 0 -0 0 0 0 0 0 -0 0 0 0 0 0 -0 0 0 0 0 0 -0 -0 0 0 0 0 0 0 0 0
0 0 0 0 0 0 0 0 -0 0 0 0 -0 -0 0 -0 0 0 0 0 0 0 0 -0 -0 -0 0 0 -0 0 -0 0 -0 0 0 0 0 0 0 0 0 0 0 0 0
0 0 0 0 0 0 0 -0 0 0 0 0 0 0 0 -0 0 0 -0 0 0 0 0 -0 -0 -0 0 0 0 0 0 0 0 0 0 0 0 0 0 0 0 0 0 0 0
0 0 0 0 0 0 -0 0 0 -0 0 0 0 0 0 0 0 0 -0 0 0 0 0 0 0 0 0 0 0 0 0 0 0 -0 0 0 0 0 0 0 0 0 0 0 0
0 0 0 0 0 0 0 0 0 0 0 0 0 0 0 0 -0 0 0 0 0 0 0 0 0 0 0 0 0 0 0 -0 0 0 0 0 -0 0 0 0 0 0 0 0 0
0 0 0 0 0 0 0 0 0 0 0 0 0 0 0 0 -0 0 0 0 0 0 0 0 0 0 -0 0 -0 0 0 0 -0 -0 0 0 0 0 0 0 0 0 0 0 0
0 0 0 0 0 0 0 0 0 0 0 0 0 -0 0 0 0 0 0 0 0 0 0 -0 0 -0 0 0 0 0 0 0 0 0 0 0 0 0 0 0 0 0 0 0 0
0 0 0 0 0 0 -0 0 0 0 0 0 0 0 0 0 0 0 0 0 0 0 0 0 0 0 0 0 0 -0 -0 0 0 0 0 0 0 0 0 0 0 0 0 1 0
Wind_Speed_500mb
8 7 6 7 7 7 6 6 5 6 7 7 9 9 9 8 6 7 7 6 6 11 8 5 10 17 24 30 6 12 4 10 23 23 14 29 10 25 25 32 35 31 56 65 59
9 8 7 7 8 8 7 6 6 6 6 7 9 8 8 8 10 18 21 17 15 8 8 8 17 16 32 22 6 4 3 16 30 29 18 21 29 48 29 35 41 44 51 59 57
11 9 8 8 8 9 8 7 6 6 6 7 8 7 7 8 12 11 24 18 12 5 11 19 17 26 33 5 10 13 9 14 15 16 32 13 46 49 46 12 36 42 50 52 54
10 9 9 9 9 9 9 8 6 6 6 6 9 7 10 10 4 2 16 19 15 13 12 15 21 28 17 16 9 16 16 20 10 15 16 17 11 30 23 23 41 41 47 48 49
11 9 10 10 10 10 10 9 8 5 6 6 9 8 10 13 12 7 19 19 16 13 10 16 22 26 26 14 21 16 20 24 10 12 45 69 88 62 27 19 42 43 45 44 43
11 9 10 10 10 11 10 8 8 7 5 5 7 8 8 21 3 8 14 20 17 16 13 16 18 22 23 25 18 21 27 22 7 13 52 54 19 47 10 25 36 41 43 43 41
10 9 10 10 10 12 11 9 7 7 5 4 4 9 16 18 3 7 16 18 21 18 18 12 16 22 35 24 24 27 28 18 10 21 27 57 12 27 37 22 32 38 40 41 41
9 9 10 9 10 11 11 9 6 4 3 3 3 7 15 15 8 10 15 19 22 21 21 18 20 28 26 30 28 29 23 10 18 9 9 16 16 46 60 31 31 36 39 41 41
9 9 10 10 10 9 8 6 4 1 4 8 6 4 23 12 25 20 20 22 22 24 22 20 22 29 35 28 28 29 21 13 8 7 12 19 13 41 47 33 33 35 39 42 44
9 9 9 10 9 7 2 1 2 4 6 13 10 13 28 20 16 24 22 21 24 21 23 25 29 26 26 22 22 10 4 32 2 8 15 21 25 19 45 36 38 35 37 41 45
9 8 9 9 7 1 8 2 8 8 26 17 18 10 5 7 15 22 26 22 22 24 25 33 22 25 32 28 32 25 29 26 22 22 10 15 21 21 17 34 40 43 45 48 45
10 9 8 7 3 4 9 4 10 12 15 37 18 22 4 9 20 27 30 29 31 28 30 27 31 27 29 34 29 26 29 23 27 21 16 16 20 26 33 29 36 47 53 54 51
10 9 7 4 2 8 3 16 9 12 15 31 27 26 24 17 27 29 39 37 30 29 31 31 33 29 14 26 31 20 26 25 29 32 28 20 29 34 30 17 25 33 60 54 62
10 9 4 4 4 4 12 8 10 9 10 27 22 20 22 18 28 16 37 35 30 34 29 28 37 27 32 22 24 28 29 25 20 21 20 30 24 11 14 16 27 21 10 44 59
11 10 9 18 4 3 1 8 6 4 10 23 22 17 22 27 23 20 27 35 36 31 20 31 31 31 29 33 23 30 26 23 26 29 25 28 18 15 18 22 9 12 37 11 64
12 12 11 12 12 3 6 10 4 11 7 15 18 19 30 36 18 19 20 32 26 26 34 36 37 34 24 21 24 28 32 26 24 24 22 30 27 27 21 14 9 24 8 16 4
13 15 18 18 7 5 8 9 12 14 15 22 16 26 28 28 28 18 21 23 23 19 31 33 35 36 26 24 28 23 24 19 23 22 23 32 22 25 9 10 8 13 12 2 11
13 15 20 25 12 11 7 13 15 7 10 13 22 22 24 23 28 22 24 25 31 34 30 24 22 35 29 25 24 24 22 22 24 22 26 26 18 11 4 3 9 12 36 2 21
10 11 17 12 21 12 18 18 10 12 4 8 11 17 24 27 13 19 26 23 28 33 27 28 11 20 6 6 19 25 27 33 34 30 27 31 20 13 4 4 9 24 13 5 22
16 16 12 19 18 15 16 30 24 12 17 14 15 20 21 20 20 23 18 19 29 1 11 26 27 22 14 9 23 24 23 22 20 24 26 27 33 12 22 19 19 9 18 15 15
20 16 24 22 18 21 18 30 25 7 8 16 22 20 17 23 25 26 16 17 10 4 9 25 27 28 16 14 22 18 22 23 29 22 23 21 20 29 15 21 17 4 17 28 19
15 14 24 27 22 26 23 39 6 9 12 20 12 27 16 26 9 19 22 12 18 13 7 21 18 23 33 26 29 21 26 22 15 21 24 22 24 18 15 11 15 25 22 28 13
20 15 19 28 16 22 37 19 2 25 12 16 13 19 19 19 8 17 23 24 15 4 20 24 15 19 28 24 13 19 18 22 30 32 26 23 18 15 20 10 17 24 25 26 25
16 8 18 30 38 31 30 19 20 21 24 10 16 14 14 13 24 12 19 18 19 7 15 15 30 32 26 35 8 20 28 26 25 20 25 27 31 16 30 25 33 32 21 28 20
16 12 10 19 29 30 25 8 25 20 21 10 18 21 17 18 21 23 21 24 21 28 16 14 32 34 40 42 42 36 29 31 33 31 26 32 38 6 33 32 21 28 23 19 18
27 26 20 24 9 14 8 18 20 17 11 20 20 23 19 22 19 28 19 18 21 16 14 27 25 33 36 39 39 44 42 36 39 37 39 38 34 36 19 41 28 6 20 13 19
19 22 16 18 22 16 19 17 16 18 6 19 19 14 9 22 26 29 30 26 30 17 23 24 24 28 34 40 36 35 34 32 33 43 36 38 36 32 31 19 38 16 15 21 11
Wind_Direction_500mb
328 324 322 317 313 311 315 313 295 267 250 255 255 255 257 255 237 237 293 172 266 278 320 279 304 287 284 277 240 283 163 194 174 109 314 312 86 47 52 72 65 73 135 140 144
327 322 320 312 307 303 303 302 300 279 265 252 251 249 256 265 255 252 242 262 245 241 144 252 298 300 269 275 304 272 213 16 78 148 166 234 87 88 16 10 90 93 120 138 146
324 318 314 306 303 303 301 300 303 292 276 261 256 247 248 257 270 227 214 228 214 187 202 295 310 287 299 313 10 323 14 10 31 30 154 185 101 141 141 232 106 127 136 147 152
319 314 306 301 305 304 302 297 294 297 290 266 257 236 235 261 317 218 196 203 207 190 283 291 294 296 301 10 12 316 16 337 24 52 328 66 63 80 112 56 118 138 148 153 160
316 310 301 301 308 306 300 302 297 288 287 270 260 234 236 252 264 300 190 197 211 223 254 276 303 325 333 4 326 355 340 311 6 81 50 53 343 338 87 107 118 138 151 158 165
314 310 301 303 311 307 300 300 294 281 274 276 255 235 239 249 83 315 213 196 205 214 255 273 307 334 291 310 300 337 313 296 12 58 65 86 358 18 299 122 130 145 155 164 169
311 308 301 306 315 309 305 296 293 278 263 267 247 234 254 249 180 226 206 209 201 222 257 290 309 309 316 312 359 294 282 282 9 356 136 94 75 234 259 135 144 154 161 166 175
310 306 303 312 317 310 304 296 293 274 229 210 213 235 254 190 201 207 207 212 218 230 252 291 302 296 281 282 288 266 274 267 268 350 29 140 218 237 245 157 163 165 169 172 180
305 308 309 317 317 316 306 288 287 217 164 155 111 241 245 243 232 219 209 216 222 237 248 265 285 283 284 280 271 248 272 228 339 137 8 328 285 216 201 173 166 176 179 181 186
304 307 312 317 322 326 332 133 197 175 169 174 228 248 235 244 203 204 208 219 225 234 237 243 253 257 258 250 271 303 154 288 176 352 14 321 333 154 169 167 168 186 187 189 190
299 303 310 318 323 330 156 129 257 229 212 226 187 238 126 174 155 201 204 212 232 233 239 236 242 243 256 264 281 304 301 314 316 312 335 308 313 322 238 177 176 179 193 189 198
297 297 303 312 302 153 155 265 10 327 282 230 245 242 204 222 217 222 203 212 221 234 230 251 242 245 273 288 289 302 307 294 280 281 268 284 299 292 286 186 174 194 187 193 193
290 287 296 319 167 179 335 318 310 321 261 190 217 228 219 224 235 200 199 212 225 230 249 247 254 244 260 275 276 275 267 286 292 303 304 283 275 262 252 195 200 217 190 192 187
268 263 263 144 104 315 270 274 318 313 275 151 193 218 188 210 233 225 198 214 231 250 240 257 269 264 283 261 285 278 283 293 281 295 287 286 274 229 296 234 201 222 125 206 188
252 237 219 195 198 231 237 316 283 246 263 155 138 137 185 207 108 196 186 211 238 234 239 266 251 251 268 272 283 277 298 316 308 300 275 267 277 279 247 224 230 166 189 204 178
245 227 209 218 236 170 295 304 289 235 219 151 139 192 196 216 227 131 207 215 249 261 270 264 267 286 281 287 258 257 275 271 264 262 267 259 257 271 261 188 114 172 143 107 329
240 226 207 208 155 241 267 254 224 258 135 148 173 169 196 194 233 168 196 205 228 219 242 243 240 242 233 265 268 256 265 258 258 236 241 237 226 248 58 32 13 315 344 195 135
240 228 217 208 227 270 248 235 255 283 165 131 162 168 201 194 213 192 191 227 215 260 285 288 274 204 210 222 268 267 246 258 262 284 310 305 216 196 321 335 87 293 250 62 239
213 214 227 228 222 207 235 226 239 315 53 167 216 197 199 208 245 197 219 236 234 205 247 285 333 97 33 265 245 254 258 268 274 286 284 286 306 128 204 170 216 259 93 72 359
175 215 214 187 185 186 237 255 300 35 339 315 217 211 226 183 203 250 234 226 251 114 331 287 295 298 228 145 247 265 293 288 249 250 271 285 293 275 161 142 91 331 66 61 23
210 219 165 171 177 219 233 237 261 127 287 273 267 286 253 279 194 242 245 187 198 81 260 292 284 276 155 195 257 222 228 225 266 289 291 267 256 46 160 125 114 196 66 47 13
257 258 167 168 200 225 233 247 62 280 210 270 292 298 278 263 243 242 286 9 156 236 273 260 282 286 276 245 229 220 280 306 241 244 259 287 301 107 115 122 152 89 77 55 337
262 193 174 183 223 224 226 260 86 248 247 227 256 251 290 290 291 275 257 90 89 283 32 337 279 256 258 257 271 226 249 283 278 285 287 295 284 181 101 124 113 83 84 76 39
282 163 167 209 250 282 280 193 225 254 302 246 297 300 270 263 269 254 281 145 157 257 44 306 277 294 298 308 263 279 283 295 263 283 275 266 282 155 170 184 147 140 121 101 60
256 337 349 192 218 243 284 281 218 187 218 241 252 263 244 259 257 249 242 281 166 176 205 248 264 270 276 284 292 287 277 274 283 297 290 296 301 342 54 28 57 119 110 116 93
295 348 338 277 14 330 102 259 258 243 197 214 235 269 231 273 301 320 335 303 247 144 219 245 250 257 270 276 280 284 288 295 293 286 278 286 280 287 128 134 195 247 113 93 83
350 310 279 295 269 204 245 207 231 271 42 267 336 311 291 32 355 326 331 324 316 317 299 301 297 302 295 306 309 279 279 270 292 264 265 268 279 296 300 129 160 259 227 127 107
Wind_Speed_850mb
8 7 6 7 7 7 6 6 5 6 7 7 9 9 9 8 6 7 7 6 6 11 8 5 10 17 24 30 6 12 4 10 23 23 14 29 10 25 25 32 35 31 56 65 59
9 8 7 7 8 8 7 6 6 6 6 7 9 8 8 8 10 18 21 17 15 8 8 8 17 16 32 22 6 4 3 16 30 29 18 21 29 48 29 35 41 44 51 59 57
11 9 8 8 8 9 8 7 6 6 6 7 8 7 7 8 12 11 24 18 12 5 11 19 17 26 33 5 10 13 9 14 15 16 32 13 46 49 46 12 36 42 50 52 54
10 9 9 9 9 9 9 8 6 6 6 6 9 7 10 10 4 2 16 19 15 13 12 15 21 28 17 16 9 16 16 20 10 15 16 17 11 30 23 23 41 41 47 48 49
11 9 10 10 10 10 10 9 8 5 6 6 9 8 10 13 12 7 19 19 16 13 10 16 22 26 26 14 21 16 20 24 10 12 45 69 88 62 27 19 42 43 45 44 43
11 9 10 10 10 11 10 8 8 7 5 5 7 8 8 21 3 8 14 20 17 16 13 16 18 22 23 25 18 21 27 22 7 13 52 54 19 47 10 25 36 41 43 43 41
10 9 10 10 10 12 11 9 7 7 5 4 4 9 16 18 3 7 16 18 21 18 18 12 16 22 35 24 24 27 28 18 10 21 27 57 12 27 37 22 32 38 40 41 41
9 9 10 9 10 11 11 9 6 4 3 3 3 7 15 15 8 10 15 19 22 21 21 18 20 28 26 30 28 29 23 10 18 9 9 16 16 46 60 31 31 36 39 41 41
9 9 10 10 10 9 8 6 4 1 4 8 6 4 23 12 25 20 20 22 22 24 22 20 22 29 35 28 28 29 21 13 8 7 12 19 13 41 47 33 33 35 39 42 44
9 9 9 10 9 7 2 1 2 4 6 13 10 13 28 20 16 24 22 21 24 21 23 25 29 26 26 22 22 10 4 32 2 8 15 21 25 19 45 36 38 35 37 41 45
9 8 9 9 7 1 8 2 8 8 26 17 18 10 5 7 15 22 26 22 22 24 25 33 22 25 32 28 32 25 29 26 22 22 10 15 21 21 17 34 40 43 45 48 45
10 9 8 7 3 4 9 4 10 12 15 37 18 22 4 9 20 27 30 29 31 28 30 27 31 27 29 34 29 26 29 23 27 21 16 16 20 26 33 29 36 47 53 54 51
10 9 7 4 2 8 3 16 9 12 15 31 27 26 24 17 27 29 39 37 30 29 31 31 33 29 14 26 31 20 26 25 29 32 28 20 29 34 30 17 25 33 60 54 62
10 9 4 4 4 4 12 8 10 9 10 27 22 20 22 18 28 16 37 35 30 34 29 28 37 27 32 22 24 28 29 25 20 21 20 30 24 11 14 16 27 21 10 44 59
11 10 9 18 4 3 1 8 6 4 10 23 22 17 22 27 23 20 27 35 36 31 20 31 31 31 29 33 23 30 26 23 26 29 25 28 18 15 18 22 9 12 37 11 64
12 12 11 12 12 3 6 10 4 11 7 15 18 19 30 36 18 19 20 32 26 26 34 36 37 34 24 21 24 28 32 26 24 24 22 30 27 27 21 14 9 24 8 16 4
13 15 18 18 7 5 8 9 12 14 15 22 16 26 28 28 28 18 21 23 23 19 31 33 35 36 26 24 28 23 24 19 23 22 23 32 22 25 9 10 8 13 12 2 11
13 15 20 25 12 11 7 13 15 7 10 13 22 22 24 23 28 22 24 25 31 34 30 24 22 35 29 25 24 24 22 22 24 22 26 26 18 11 4 3 9 12 36 2 21
10 11 17 12 21 12 18 18 10 12 4 8 11 17 24 27 13 19 26 23 28 33 27 28 11 20 6 6 19 25 27 33 34 30 27 31 20 13 4 4 9 24 13 5 22
16 16 12 19 18 15 16 30 24 12 17 14 15 20 21 20 20 23 18 19 29 1 11 26 27 22 14 9 23 24 23 22 20 24 26 27 33 12 22 19 19 9 18 15 15
20 16 24 22 18 21 18 30 25 7 8 16 22 20 17 23 25 26 16 17 10 4 9 25 27 28 16 14 22 18 22 23 29 22 23 21 20 29 15 21 17 4 17 28 19
15 14 24 27 22 26 23 39 6 9 12 20 12 27 16 26 9 19 22 12 18 13 7 21 18 23 33 26 29 21 26 22 15 21 24 22 24 18 15 11 15 25 22 28 13
20 15 19 28 16 22 37 19 2 25 12 16 13 19 19 19 8 17 23 24 15 4 20 24 15 19 28 24 13 19 18 22 30 32 26 23 18 15 20 10 17 24 25 26 25
16 8 18 30 38 31 30 19 20 21 24 10 16 14 14 13 24 12 19 18 19 7 15 15 30 32 26 35 8 20 28 26 25 20 25 27 31 16 30 25 33 32 21 28 20
16 12 10 19 29 30 25 8 25 20 21 10 18 21 17 18 21 23 21 24 21 28 16 14 32 34 40 42 42 36 29 31 33 31 26 32 38 6 33 32 21 28 23 19 18
27 26 20 24 9 14 8 18 20 17 11 20 20 23 19 22 19 28 19 18 21 16 14 27 25 33 36 39 39 44 42 36 39 37 39 38 34 36 19 41 28 6 20 13 19
19 22 16 18 22 16 19 17 16 18 6 19 19 14 9 22 26 29 30 26 30 17 23 24 24 28 34 40 36 35 34 32 33 43 36 38 36 32 31 19 38 16 15 21 11
Wind_Direction_850mb
328 324 322 317 313 311 315 313 295 267 250 255 255 255 257 255 237 237 293 172 266 278 320 279 304 287 284 277 240 283 163 194 174 109 314 312 86 47 52 72 65 73 135 140 144
327 322 320 312 307 303 303 302 300 279 265 252 251 249 256 265 255 252 242 262 245 241 144 252 298 300 269 275 304 272 213 16 78 148 166 234 87 88 16 10 90 93 120 138 146
324 318 314 306 303 303 301 300 303 292 276 261 256 247 248 257 270 227 214 228 214 187 202 295 310 287 299 313 10 323 14 10 31 30 154 185 101 141 141 232 106 127 136 147 152
319 314 306 301 305 304 302 297 294 297 290 266 257 236 235 261 317 218 196 203 207 190 283 291 294 296 301 10 12 316 16 337 24 52 328 66 63 80 112 56 118 138 148 153 160
316 310 301 301 308 306 300 302 297 288 287 270 260 234 236 252 264 300 190 197 211 223 254 276 303 325 333 4 326 355 340 311 6 81 50 53 343 338 87 107 118 138 151 158 165
314 310 301 303 311 307 300 300 294 281 274 276 255 235 239 249 83 315 213 196 205 214 255 273 307 334 291 310 300 337 313 296 12 58 65 86 358 18 299 122 130 145 155 164 169
311 308 301 306 315 309 305 296 293 278 263 267 247 234 254 249 180 226 206 209 201 222 257 290 309 309 316 312 359 294 282 282 9 356 136 94 75 234 259 135 144 154 161 166 175
310 306 303 312 317 310 304 296 293 274 229 210 213 235 254 190 201 207 207 212 218 230 252 291 302 296 281 282 288 266 274 267 268 350 29 140 218 237 245 157 163 165 169 172 180
305 308 309 317 317 316 306 288 287 217 164 155 111 241 245 243 232 219 209 216 222 237 248 265 285 283 284 280 271 248 272 228 339 137 8 328 285 216 201 173 166 176 179 181 186
304 307 312 317 322 326 332 133 197 175 169 174 228 248 235 244 203 204 208 219 225 234 237 243 253 257 258 250 271 303 154 288 176 352 14 321 333 154 169 167 168 186 187 189 190
299 303 310 318 323 330 156 129 257 229 212 226 187 238 126 174 155 201 204 212 232 233 239 236 242 243 256 264 281 304 301 314 316 312 335 308 313 322 238 177 176 179 193 189 198
297 297 303 312 302 153 155 265 10 327 282 230 245 242 204 222 217 222 203 212 221 234 230 251 242 245 273 288 289 302 307 294 280 281 268 284 299 292 286 186 174 194 187 193 193
290 287 296 319 167 179 335 318 310 321 261 190 217 228 219 224 235 200 199 212 225 230 249 247 254 244 260 275 276 275 267 286 292 303 304 283 275 262 252 195 200 217 190 192 187
268 263 263 144 104 315 270 274 318 313 275 151 193 218 188 210 233 225 198 214 231 250 240 257 269 264 283 261 285 278 283 293 281 295 287 286 274 229 296 234 201 222 125 206 188
252 237 219 195 198 231 237 316 283 246 263 155 138 137 185 207 108 196 186 211 238 234 239 266 251 251 268 272 283 277 298 316 308 300 275 267 277 279 247 224 230 166 189 204 178
245 227 209 218 236 170 295 304 289 235 219 151 139 192 196 216 227 131 207 215 249 261 270 264 267 286 281 287 258 257 275 271 264 262 267 259 257 271 261 188 114 172 143 107 329
240 226 207 208 155 241 267 254 224 258 135 148 173 169 196 194 233 168 196 205 228 219 242 243 240 242 233 265 268 256 265 258 258 236 241 237 226 248 58 32 13 315 344 195 135
240 228 217 208 227 270 248 235 255 283 165 131 162 168 201 194 213 192 191 227 215 260 285 288 274 204 210 222 268 267 246 258 262 284 310 305 216 196 321 335 87 293 250 62 239
213 214 227 228 222 207 235 226 239 315 53 167 216 197 199 208 245 197 219 236 234 205 247 285 333 97 33 265 245 254 258 268 274 286 284 286 306 128 204 170 216 259 93 72 359
175 215 214 187 185 186 237 255 300 35 339 315 217 211 226 183 203 250 234 226 251 114 331 287 295 298 228 145 247 265 293 288 249 250 271 285 293 275 161 142 91 331 66 61 23
210 219 165 171 177 219 233 237 261 127 287 273 267 286 253 279 194 242 245 187 198 81 260 292 284 276 155 195 257 222 228 225 266 289 291 267 256 46 160 125 114 196 66 47 13
257 258 167 168 200 225 233 247 62 280 210 270 292 298 278 263 243 242 286 9 156 236 273 260 282 286 276 245 229 220 280 306 241 244 259 287 301 107 115 122 152 89 77 55 337
262 193 174 183 223 224 226 260 86 248 247 227 256 251 290 290 291 275 257 90 89 283 32 337 279 256 258 257 271 226 249 283 278 285 287 295 284 181 101 124 113 83 84 76 39
282 163 167 209 250 282 280 193 225 254 302 246 297 300 270 263 269 254 281 145 157 257 44 306 277 294 298 308 263 279 283 295 263 283 275 266 282 155 170 184 147 140 121 101 60
256 337 349 192 218 243 284 281 218 187 218 241 252 263 244 259 257 249 242 281 166 176 205 248 264 270 276 284 292 287 277 274 283 297 290 296 301 342 54 28 57 119 110 116 93
295 348 338 277 14 330 102 259 258 243 197 214 235 269 231 273 301 320 335 303 247 144 219 245 250 257 270 276 280 284 288 295 293 286 278 286 280 287 128 134 195 247 113 93 83
350 310 279 295 269 204 245 207 231 271 42 267 336 311 291 32 355 326 331 324 316 317 299 301 297 302 295 306 309 279 279 270 292 264 265 268 279 296 300 129 160 259 227 127 107